H1 CPF 2 NER 2025 12 2 9 336 01 glonass141 H2 1908801 9141 44850 2025 12 2 0 0 0 2025 12 5 23 45 0 900 1 1 0 0 0 1 H9 10 0 61011 0.00000 0 16167535.631 10397005.019 16809622.606 10 0 61011 900.00000 0 14004300.311 9990942.340 18872049.460 10 0 61011 1800.00000 0 11586371.101 9735290.248 20569142.998 10 0 61011 2700.00000 0 8972207.091 9663557.693 21868084.388 10 0 61011 3600.00000 0 6226893.318 9798346.422 22743736.534 10 0 61011 4500.00000 0 3419667.019 10150301.763 23179123.850 10 0 61011 5400.00000 0 621278.840 10717578.336 23165758.418 10 0 61011 6300.00000 0 -2098703.602 11485843.333 22703806.649 10 0 61011 7200.00000 0 -4674539.926 12428818.007 21802093.182 10 0 61011 8100.00000 0 -7046801.210 13509335.961 20477941.415 10 0 61011 9000.00000 0 -9164592.709 14680875.501 18756852.741 10 0 61011 9900.00000 0 -10987423.850 15889503.642 16672029.338 10 0 61011 10800.00000 0 -12486648.454 17076152.008 14263748.142 10 0 61011 11700.00000 0 -13646415.399 18179130.644 11578596.450 10 0 61011 12600.00000 0 -14464089.895 19136775.225 8668582.385 10 0 61011 13500.00000 0 -14950127.341 19890116.851 5590136.174 10 0 61011 14400.00000 0 -15127404.534 20385461.935 2403020.637 10 0 61011 15300.00000 0 -15030035.834 20576772.665 -830828.356 10 0 61011 16200.00000 0 -14701723.838 20427746.343 -4048508.919 10 0 61011 17100.00000 0 -14193714.118 19913504.059 -7187383.711 10 0 61011 18000.00000 0 -13562440.698 19021815.392 -10186309.119 10 0 61011 18900.00000 0 -12866962.600 17753805.333 -12986837.995 10 0 61011 19800.00000 0 -12166300.842 16124111.573 -15534371.193 10 0 61011 20700.00000 0 -11516789.892 14160483.767 -17779234.145 10 0 61011 21600.00000 0 -10969556.989 11902840.225 -19677656.303 10 0 61011 22500.00000 0 -10568237.302 9401820.643 -21192633.419 10 0 61011 23400.00000 0 -10347022.734 6716895.080 -22294655.115 10 0 61011 24300.00000 0 -10329127.776 3914108.166 -22962283.218 10 0 61011 25200.00000 0 -10525737.807 1063552.957 -23182569.476 10 0 61011 26100.00000 0 -10935484.516 -1763319.755 -22951304.663 10 0 61011 27000.00000 0 -11544470.471 -4496444.215 -22273094.618 10 0 61011 27900.00000 0 -12326841.425 -7069820.057 -21161262.206 10 0 61011 28800.00000 0 -13245881.584 -9424018.640 -19637577.749 10 0 61011 29700.00000 0 -14255584.835 -11508411.395 -17731823.843 10 0 61011 30600.00000 0 -15302634.826 -13283028.139 -15481203.730 10 0 61011 31500.00000 0 -16328709.498 -14719969.138 -12929605.477 10 0 61011 32400.00000 0 -17273012.108 -15804313.645 -10126737.043 10 0 61011 33300.00000 0 -18074921.327 -16534488.997 -7127149.758 10 0 61011 34200.00000 0 -18676648.241 -16922087.108 -3989169.980 10 0 61011 35100.00000 0 -19025787.964 -16991138.460 -773760.341 10 0 61011 36000.00000 0 -19077658.383 -16776876.413 2456666.772 10 0 61011 36900.00000 0 -18797327.764 -16324045.886 5639459.997 10 0 61011 37800.00000 0 -18161246.294 -15684829.311 8712940.437 10 0 61011 38700.00000 0 -17158413.516 -14916478.396 11617590.389 10 0 61011 39600.00000 0 -15791033.124 -14078752.088 14297196.716 10 0 61011 40500.00000 0 -14074628.090 -13231268.699 16699927.503 10 0 61011 41400.00000 0 -12037611.406 -12430883.194 18779322.204 10 0 61011 42300.00000 0 -9720330.191 -11729199.089 20495177.344 10 0 61011 43200.00000 0 -7173622.384 -11170318.442 21814312.013 10 0 61011 44100.00000 0 -4456945.013 -10788923.191 22711199.710 10 0 61011 45000.00000 0 -1636150.379 -10608767.313 23168455.441 10 0 61011 45900.00000 0 1218999.376 -10641642.230 23177169.571 10 0 61011 46800.00000 0 4037478.287 -10886858.471 22737082.410 10 0 61011 47700.00000 0 6749695.540 -11331265.489 21856596.153 10 0 61011 48600.00000 0 9290137.514 -11949809.442 20552623.420 10 0 61011 49500.00000 0 11599845.063 -12706606.709 18850274.335 10 0 61011 50400.00000 0 13628624.468 -13556489.529 16782386.864 10 0 61011 51300.00000 0 15336901.042 -14446960.438 14388907.877 10 0 61011 52200.00000 0 16697138.574 -15320474.903 11716135.262 10 0 61011 53100.00000 0 17694765.297 -16116957.308 8815834.179 10 0 61011 54000.00000 0 18328567.261 -16776445.104 5744243.268 10 0 61011 54900.00000 0 18610532.013 -17241749.832 2560989.128 10 0 61011 55800.00000 0 18565148.446 -17461022.242 -672070.334 10 0 61011 56700.00000 0 18228191.749 -17390112.155 -3892051.168 10 0 61011 57600.00000 0 17645044.310 -16994621.740 -7036273.391 10 0 61011 58500.00000 0 16868623.431 -16251563.488 -10043490.872 10 0 61011 59400.00000 0 15957003.783 -15150550.659 -12855095.984 10 0 61011 60300.00000 0 14970835.787 -13694467.735 -15416274.283 10 0 61011 61200.00000 0 13970670.086 -11899590.542 -17677085.324 10 0 61011 62100.00000 0 13014302.382 -9795149.225 -19593447.393 10 0 61011 63000.00000 0 12154252.051 -7422351.062 -21128005.964 10 0 61011 63900.00000 0 11435482.148 -4832903.192 -22250868.229 10 0 61011 64800.00000 0 10893457.940 -2087096.652 -22940189.011 10 0 61011 65700.00000 0 10552626.413 748468.333 -23182596.532 10 0 61011 66600.00000 0 10425381.079 3603420.653 -22973449.880 10 0 61011 67500.00000 0 10511555.480 6406314.102 -22316923.546 10 0 61011 68400.00000 0 10798466.160 9087368.071 -21225917.867 10 0 61011 69300.00000 0 11261502.420 11581138.828 -19721797.738 10 0 61011 70200.00000 0 11865236.894 13829010.276 -17833965.367 10 0 61011 71100.00000 0 12565008.881 15781400.912 -15599276.051 10 0 61011 72000.00000 0 13308912.442 17399595.800 -13061309.117 10 0 61011 72900.00000 0 14040104.186 18657128.447 -10269508.936 10 0 61011 73800.00000 0 14699332.347 19540656.498 -7278213.470 10 0 61011 74700.00000 0 15227579.612 20050296.627 -4145589.961 10 0 61011 75600.00000 0 15568707.584 20199406.759 -932499.137 10 0 61011 76500.00000 0 15671991.068 20013827.039 2298689.465 10 0 61011 77400.00000 0 15494435.258 19530613.506 5485307.637 10 0 61011 78300.00000 0 15002778.419 18796319.579 8565600.439 10 0 61011 79200.00000 0 14175096.109 17864899.013 11479916.580 10 0 61011 80100.00000 0 13001939.906 16795319.437 14171854.549 10 0 61011 81000.00000 0 11486963.187 15648987.182 16589343.040 10 0 61011 81900.00000 0 9647007.867 14487091.356 18685635.811 10 0 61011 82800.00000 0 7511648.305 13367978.067 20420202.908 10 0 61011 83700.00000 0 5122210.868 12344663.855 21759502.417 10 0 61011 84600.00000 0 2530308.973 11462591.308 22677619.119 10 0 61011 85500.00000 0 -204046.836 10757719.600 23156758.916 10 0 61012 0.00000 0 -3014686.850 10255028.731 23187590.348 10 0 61012 900.00000 0 -5831778.871 9967499.020 22769427.056 10 0 61012 1800.00000 0 -8584478.495 9895608.737 21910247.705 10 0 61012 2700.00000 0 -11203630.172 10027370.089 20626552.579 10 0 61012 3600.00000 0 -13624405.214 10338903.306 18943058.499 10 0 61012 4500.00000 0 -15788770.187 10795525.404 16892236.741 10 0 61012 5400.00000 0 -17647683.921 11353309.185 14513701.282 10 0 61012 6300.00000 0 -19162932.193 11961048.246 11853457.510 10 0 61012 7200.00000 0 -20308523.551 12562546.481 8963024.386 10 0 61012 8100.00000 0 -21071587.554 13099136.440 5898445.714 10 0 61012 9000.00000 0 -21452737.076 13512320.697 2719208.667 10 0 61012 9900.00000 0 -21465878.626 13746424.466 -512909.863 10 0 61012 10800.00000 0 -21137477.789 13751146.548 -3735046.746 10 0 61012 11700.00000 0 -20505310.101 13483899.374 -6884482.043 10 0 61012 12600.00000 0 -19616749.625 12911837.344 -9899869.559 10 0 61012 13500.00000 0 -18526667.522 12013485.585 -12722443.408 10 0 61012 14400.00000 0 -17295029.676 10779898.013 -15297175.772 10 0 61012 15300.00000 0 -15984295.615 9215293.608 -17573861.944 10 0 61012 16200.00000 0 -14656729.480 7337142.075 -19508110.297 10 0 61012 17100.00000 0 -13371737.624 5175693.554 -21062216.909 10 0 61012 18000.00000 0 -12183346.175 2772970.895 -22205907.043 10 0 61012 18900.00000 0 -11137925.742 181265.872 -22916928.644 10 0 61012 19800.00000 0 -10272259.669 -2538798.158 -23181486.163 10 0 61012 20700.00000 0 -9612037.337 -5320556.267 -22994506.403 10 0 61012 21600.00000 0 -9170835.693 -8093848.923 -22359731.562 10 0 61012 22500.00000 0 -8949631.141 -10787719.471 -21289638.169 10 0 61012 23400.00000 0 -8936861.343 -13333149.457 -19805184.096 10 0 61012 24300.00000 0 -9109032.932 -15665717.730 -17935389.266 10 0 61012 25200.00000 0 -9431848.015 -17728072.711 -15716758.886 10 0 61012 26100.00000 0 -9861800.401 -19472115.184 -13192561.195 10 0 61012 27000.00000 0 -10348172.630 -20860801.436 -10411974.512 10 0 61012 27900.00000 0 -10835348.133 -21869492.689 -7429120.878 10 0 61012 28800.00000 0 -11265339.694 -22486795.949 -4302005.858 10 0 61012 29700.00000 0 -11580426.536 -22714862.995 -1091385.738 10 0 61012 30600.00000 0 -11725788.082 -22569136.947 2140415.306 10 0 61012 31500.00000 0 -11652022.898 -22077559.077 5330714.685 10 0 61012 32400.00000 0 -11317446.582 -21279271.007 8417683.829 10 0 61012 33300.00000 0 -10690071.931 -20222868.340 11341540.212 10 0 61012 34200.00000 0 -9749188.370 -18964280.181 14045696.201 10 0 61012 35100.00000 0 -8486474.576 -17564364.138 16477843.203 10 0 61012 36000.00000 0 -6906597.802 -16086317.758 18590951.179 10 0 61012 36900.00000 0 -5027274.736 -14593014.416 20344165.329 10 0 61012 37800.00000 0 -2878790.919 -13144374.293 21703584.029 10 0 61012 38700.00000 0 -502997.890 -11794879.194 22642904.288 10 0 61012 39600.00000 0 2048171.455 -10591333.686 23143923.454 10 0 61012 40500.00000 0 4714609.269 -9570964.705 23196888.371 10 0 61012 41400.00000 0 7430283.806 -8759937.762 22800685.772 10 0 61012 42300.00000 0 10125743.825 -8172350.878 21962870.251 10 0 61012 43200.00000 0 12730774.666 -7809747.766 20699528.828 10 0 61012 44100.00000 0 15177097.816 -7661170.664 19034983.760 10 0 61012 45000.00000 0 17401003.497 -7703750.983 17001338.057 10 0 61012 45900.00000 0 19345808.096 -7903813.827 14637870.902 10 0 61012 46800.00000 0 20964034.791 -8218450.942 11990292.964 10 0 61012 47700.00000 0 22219226.539 -8597496.959 9109874.475 10 0 61012 48600.00000 0 23087315.298 -8985826.489 6052461.555 10 0 61012 49500.00000 0 23557489.390 -9325875.650 2877398.866 10 0 61012 50400.00000 0 23632521.586 -9560281.515 -353620.982 10 0 61012 51300.00000 0 23328543.057 -9634527.327 -3577759.011 10 0 61012 52200.00000 0 22674271.706 -9499480.468 -6732258.600 10 0 61012 53100.00000 0 21709726.662 -9113714.138 -9755676.593 10 0 61012 54000.00000 0 20484482.749 -8445512.565 -12589091.664 10 0 61012 54900.00000 0 19055538.570 -7474472.662 -15177265.108 10 0 61012 55800.00000 0 17484888.527 -6192632.242 -17469730.065 10 0 61012 56700.00000 0 15836901.869 -4605074.981 -19421786.726 10 0 61012 57600.00000 0 14175620.134 -2729984.731 -20995383.126 10 0 61012 58500.00000 0 12562087.761 -598145.356 -22159863.579 10 0 61012 59400.00000 0 11051829.069 1748094.063 -22892569.759 10 0 61012 60300.00000 0 9692578.270 4256345.997 -23179282.596 10 0 61012 61200.00000 0 8522358.206 6866139.645 -23014496.482 10 0 61012 62100.00000 0 7567988.268 9511222.820 -22401520.827 10 0 61012 63000.00000 0 6844083.544 12122114.293 -21352407.495 10 0 61012 63900.00000 0 6352586.114 14628799.790 -19887706.120 10 0 61012 64800.00000 0 6082846.713 16963458.997 -18036052.771 10 0 61012 65700.00000 0 6012251.566 19063109.752 -15833600.653 10 0 61012 66600.00000 0 6107366.099 20872059.242 -13323304.666 10 0 61012 67500.00000 0 6325545.410 22344060.352 -10554074.493 10 0 61012 68400.00000 0 6616941.756 23444083.922 -7579813.380 10 0 61012 69300.00000 0 6926822.725 24149633.940 -4458362.081 10 0 61012 70200.00000 0 7198100.891 24451552.123 -1250369.123 10 0 61012 71100.00000 0 7373967.147 24354279.874 1981890.092 10 0 61012 72000.00000 0 7400515.884 23875568.409 5175721.978 10 0 61012 72900.00000 0 7229250.941 23045650.979 8269227.611 10 0 61012 73800.00000 0 6819366.667 21905913.419 11202496.290 10 0 61012 74700.00000 0 6139708.165 20507120.024 13918757.031 10 0 61012 75600.00000 0 5170328.590 18907269.845 16365466.400 10 0 61012 76500.00000 0 3903578.316 17169173.461 18495312.633 10 0 61012 77400.00000 0 2344680.357 15357851.347 20267117.791 10 0 61012 78300.00000 0 511767.743 13537861.847 21646621.854 10 0 61012 79200.00000 0 -1564619.394 11770669.137 22607134.968 10 0 61012 80100.00000 0 -3842557.131 10112159.621 23130046.404 10 0 61012 81000.00000 0 -6270240.374 8610408.744 23205181.342 10 0 61012 81900.00000 0 -8787904.243 7303789.852 22830999.133 10 0 61012 82800.00000 0 -11330086.471 6219502.682 22014629.269 10 0 61012 83700.00000 0 -13828139.124 5372581.946 20771743.945 10 0 61012 84600.00000 0 -16212887.428 4765426.877 19126268.755 10 0 61012 85500.00000 0 -18417327.036 4387871.379 17109935.838 10 0 61013 0.00000 0 -20379248.810 4217792.163 14761686.755 10 0 61013 900.00000 0 -22043683.648 4222229.969 12126933.643 10 0 61013 1800.00000 0 -23365063.088 4358977.679 9256694.577 10 0 61013 2700.00000 0 -24309008.573 4578568.955 6206614.283 10 0 61013 3600.00000 0 -24853671.034 4826584.305 3035891.233 10 0 61013 4500.00000 0 -24990564.540 5046177.238 -193869.810 10 0 61013 5400.00000 0 -24724857.515 5180713.386 -3419857.358 10 0 61013 6300.00000 0 -24075107.955 5176410.075 -6579281.201 10 0 61013 7200.00000 0 -23072452.678 4984863.238 -9610604.017 10 0 61013 8100.00000 0 -21759283.951 4565352.896 -12454751.513 10 0 61013 9000.00000 0 -20187468.852 3886827.589 -15056276.207 10 0 61013 9900.00000 0 -18416186.429 2929481.570 -17364450.788 10 0 61013 10800.00000 0 -16509474.133 1685856.020 -19334268.515 10 0 61013 11700.00000 0 -14533587.479 161415.744 -20927330.133 10 0 61013 12600.00000 0 -12554284.790 -1625424.610 -22112599.253 10 0 61013 13500.00000 0 -10634151.945 -3643827.275 -22867011.017 10 0 61013 14400.00000 0 -8830080.034 -5851589.859 -23175922.090 10 0 61013 15300.00000 0 -7191002.111 -8196691.756 -23033393.282 10 0 61013 16200.00000 0 -5755983.867 -10619263.922 -22442299.675 10 0 61013 17100.00000 0 -4552747.675 -13053899.565 -21414266.609 10 0 61013 18000.00000 0 -3596690.907 -15432208.911 -19969433.367 10 0 61013 18900.00000 0 -2890438.197 -17685511.018 -18136049.861 10 0 61013 19800.00000 0 -2423944.592 -19747549.981 -15949914.842 10 0 61013 20700.00000 0 -2175143.196 -21557121.905 -13453667.338 10 0 61013 21600.00000 0 -2111107.835 -23060503.052 -10695945.826 10 0 61013 22500.00000 0 -2189679.617 -24213578.036 -7730432.205 10 0 61013 23400.00000 0 -2361486.819 -24983579.780 -4614799.917 10 0 61013 24300.00000 0 -2572271.123 -25350369.451 -1409587.311 10 0 61013 25200.00000 0 -2765420.633 -25307204.055 1822981.319 10 0 61013 26100.00000 0 -2884601.739 -24860961.022 5020203.643 10 0 61013 27000.00000 0 -2876378.122 -24031811.877 8120112.547 10 0 61013 27900.00000 0 -2692706.197 -22852360.101 11062671.230 10 0 61013 28800.00000 0 -2293201.865 -21366280.529 13790927.333 10 0 61013 29700.00000 0 -1647083.406 -19626518.066 16252104.411 10 0 61013 30600.00000 0 -734709.143 -17693121.476 18398610.626 10 0 61013 31500.00000 0 451354.448 -15630802.658 20188946.306 10 0 61013 32400.00000 0 1905778.943 -13506322.656 21588494.164 10 0 61013 33300.00000 0 3610458.016 -11385812.340 22570178.288 10 0 61013 34200.00000 0 5535030.802 -9332137.960 23114980.334 10 0 61013 35100.00000 0 7637924.001 -7402419.630 23212303.930 10 0 61013 36000.00000 0 9867871.017 -5645804.334 22860180.817 10 0 61013 36900.00000 0 12165846.894 -4101584.615 22065314.824 10 0 61013 37800.00000 0 14467340.778 -2797740.005 20842962.454 10 0 61013 38700.00000 0 16704873.535 -1749961.055 19216651.478 10 0 61013 39600.00000 0 18810657.774 -961196.265 17217741.709 10 0 61013 40500.00000 0 20719291.080 -421740.750 14884834.903 10 0 61013 41400.00000 0 22370371.274 -109863.276 12263043.484 10 0 61013 42300.00000 0 23710924.997 7054.152 9403130.654 10 0 61013 43200.00000 0 24697547.898 -29088.589 6360537.136 10 0 61013 44100.00000 0 25298166.108 -169112.772 3194312.340 10 0 61013 45000.00000 0 25493343.921 -358877.776 -34029.873 10 0 61013 45900.00000 0 25277081.273 -541813.883 -3261708.694 10 0 61013 46800.00000 0 24657065.950 -661563.169 -6425903.488 10 0 61013 47700.00000 0 23654368.396 -664615.625 -9464985.814 10 0 61013 48600.00000 0 22302590.747 -502827.305 -12319731.225 10 0 61013 49500.00000 0 20646505.067 -135712.067 -14934485.961 10 0 61013 50400.00000 0 18740237.699 467592.175 -17258264.391 10 0 61013 51300.00000 0 16645076.106 1326767.913 -19245754.602 10 0 61013 52200.00000 0 14426990.793 2449240.957 -20858211.465 10 0 61013 53100.00000 0 12153976.999 3829628.952 -22064218.959 10 0 61013 54000.00000 0 9893328.428 5449740.210 -22840306.473 10 0 61013 54900.00000 0 7708957.935 7279123.952 -23171406.879 10 0 61013 55800.00000 0 5658877.832 9276149.494 -23051147.575 10 0 61013 56700.00000 0 3792945.392 11389569.419 -22481969.168 10 0 61013 57600.00000 0 2150967.464 13560501.228 -21475069.990 10 0 61013 58500.00000 0 761242.745 15724744.225 -20050178.140 10 0 61013 59400.00000 0 -360398.667 17815334.326 -18235156.169 10 0 61013 60300.00000 0 -1211019.953 19765229.529 -16065446.818 10 0 61013 61200.00000 0 -1800450.803 21510013.315 -13583371.316 10 0 61013 62100.00000 0 -2150616.839 22990502.743 -10837294.663 10 0 61013 63000.00000 0 -2294355.835 24155152.117 -7880674.812 10 0 61013 63900.00000 0 -2273772.876 24962151.912 -4771015.013 10 0 61013 64800.00000 0 -2138205.870 25381135.678 -1568740.318 10 0 61013 65700.00000 0 -1941888.991 25394424.318 1663979.353 10 0 61013 66600.00000 0 -1741414.019 24997756.690 4864436.272 10 0 61013 67500.00000 0 -1593097.636 24200477.162 7970598.451 10 0 61013 68400.00000 0 -1550366.234 23025173.504 10922306.204 10 0 61013 69300.00000 0 -1661268.618 21506781.364 13662428.817 10 0 61013 70200.00000 0 -1966221.174 19691193.616 16137959.616 10 0 61013 71100.00000 0 -2496080.008 17633433.162 18301029.177 10 0 61013 72000.00000 0 -3270620.668 15395465.436 20109818.258 10 0 61013 72900.00000 0 -4297488.962 13043741.331 21529354.117 10 0 61013 73800.00000 0 -5571666.857 10646571.879 22532176.208 10 0 61013 74700.00000 0 -7075476.188 8271442.563 23098859.579 10 0 61013 75600.00000 0 -8779120.936 5982377.271 23218386.849 10 0 61013 76500.00000 0 -10641746.757 3837459.625 22888362.181 10 0 61013 77400.00000 0 -12612975.362 1886612.988 22115063.228 10 0 61013 78300.00000 0 -14634851.816 169729.875 20913329.707 10 0 61013 79200.00000 0 -16644125.787 -1284772.644 19306289.869 10 0 61013 80100.00000 0 -18574773.702 -2460912.153 17324928.944 10 0 61013 81000.00000 0 -20360658.382 -3355575.102 15007506.307 10 0 61013 81900.00000 0 -21938216.474 -3978407.847 12398830.992 10 0 61013 82800.00000 0 -23249062.034 -4351168.774 9549407.929 10 0 61013 83700.00000 0 -24242397.389 -4506568.214 6514470.007 10 0 61013 84600.00000 0 -24877129.672 -4486644.471 3352913.635 10 0 61013 85500.00000 0 -25123603.067 -4340744.078 126157.843 10 0 61014 0.00000 0 -24964872.478 -4123191.556 -3103050.755 10 0 61014 900.00000 0 -24397463.135 -3890747.413 -6271865.313 10 0 61014 1800.00000 0 -23431582.670 -3699963.123 -9318569.349 10 0 61014 2700.00000 0 -22090774.821 -3604545.887 -12183791.319 10 0 61014 3600.00000 0 -20411028.156 -3652846.694 -14811673.865 10 0 61014 4500.00000 0 -18439376.389 -3885579.759 -17150975.285 10 0 61014 5400.00000 0 -16232048.734 -4333871.795 -19156080.235 10 0 61014 6300.00000 0 -13852247.943 -5017725.497 -20787898.863 10 0 61014 7200.00000 0 -11367649.636 -5944963.826 -22014636.067 10 0 61014 8100.00000 0 -8847728.248 -7110701.067 -22812415.376 10 0 61014 9000.00000 0 -6361022.150 -8497364.014 -23165745.165 10 0 61014 9900.00000 0 -3972452.818 -10075263.094 -23067818.152 10 0 61014 10800.00000 0 -1740810.362 -11803689.738 -22520638.736 10 0 61014 11700.00000 0 283489.739 -13632493.972 -21534976.136 10 0 61014 12600.00000 0 2060285.509 -15504075.714 -20130144.871 10 0 61014 13500.00000 0 3561105.572 -17355705.890 -18333617.552 10 0 61014 14400.00000 0 4770105.934 -19122079.542 -16180478.184 10 0 61014 15300.00000 0 5684469.232 -20737993.379 -13712727.406 10 0 61014 16200.00000 0 6314251.972 -22141035.157 -10978453.914 10 0 61014 17100.00000 0 6681688.704 -23274171.898 -8030888.898 10 0 61014 18000.00000 0 6819984.798 -24088128.421 -4927362.632 10 0 61014 18900.00000 0 6771651.034 -24543456.697 -1728184.165 10 0 61014 19800.00000 0 6586452.239 -24612209.769 1504533.575 10 0 61014 20700.00000 0 6319058.160 -24279150.804 4708079.949 10 0 61014 21600.00000 0 6026496.935 -23542447.494 7820360.448 10 0 61014 22500.00000 0 5765519.313 -22413823.703 10781094.671 10 0 61014 23400.00000 0 5589985.106 -20918162.930 13532975.530 10 0 61014 24300.00000 0 5548381.874 -19092580.915 16022767.856 10 0 61014 25200.00000 0 5681579.923 -16985006.550 18202326.114 10 0 61014 26100.00000 0 6020917.469 -14652330.356 20029512.661 10 0 61014 27000.00000 0 6586695.862 -12158197.214 21469000.142 10 0 61014 27900.00000 0 7387147.593 -9570534.319 22492943.876 10 0 61014 28800.00000 0 8417920.316 -6958915.780 23081512.455 10 0 61014 29700.00000 0 9662098.837 -4391871.681 23223267.307 10 0 61014 30600.00000 0 11090765.075 -1934251.426 22915384.527 10 0 61014 31500.00000 0 12664073.918 355251.043 22163714.821 10 0 61014 32400.00000 0 14332801.831 2426309.168 20982680.092 10 0 61014 33300.00000 0 16040305.528 4238822.436 19395007.833 10 0 61014 34200.00000 0 17724810.945 5764345.510 17431307.218 10 0 61014 35100.00000 0 19321938.737 6987028.987 15129493.574 10 0 61014 36000.00000 0 20767362.225 7904032.735 12534070.657 10 0 61014 36900.00000 0 21999487.470 8525394.363 9695283.010 10 0 61014 37800.00000 0 22962043.526 8873357.986 6668153.354 10 0 61014 38700.00000 0 23606473.843 8981190.986 3511422.545 10 0 61014 39600.00000 0 23894027.414 8891538.176 286412.061 10 0 61014 40500.00000 0 23797460.223 8654382.572 -2944169.099 10 0 61014 41400.00000 0 23302273.595 8324699.058 -6117449.567 10 0 61014 42300.00000 0 22407435.264 7959900.703 -9171628.189 10 0 61014 43200.00000 0 21125550.889 7617186.766 -12047188.936 10 0 61014 44100.00000 0 19482477.002 7350905.993 -14688073.219 10 0 61014 45000.00000 0 17516390.356 7210048.435 -17042785.333 10 0 61014 45900.00000 0 15276351.837 7235973.685 -19065408.261 10 0 61014 46800.00000 0 12820424.776 7460473.345 -20716508.900 10 0 61014 47700.00000 0 10213426.564 7904251.229 -21963914.260 10 0 61014 48600.00000 0 7524407.996 8575886.804 -22783342.973 10 0 61014 49500.00000 0 4823966.240 9471326.611 -23158879.631 10 0 61014 50400.00000 0 2181504.234 10573925.742 -23083282.744 10 0 61014 51300.00000 0 -337448.767 11855037.899 -22558120.683 10 0 61014 52200.00000 0 -2673743.584 13275129.162 -21593733.410 10 0 61014 53100.00000 0 -4776840.227 14785368.305 -20209021.380 10 0 61014 54000.00000 0 -6606667.459 16329626.280 -18431066.387 10 0 61014 54900.00000 0 -8135036.481 17846800.272 -16294592.462 10 0 61014 55800.00000 0 -9346551.335 19273363.980 -13841278.051 10 0 61014 56700.00000 0 -10238980.054 20546036.436 -11118933.615 10 0 61014 57600.00000 0 -10823073.403 21604456.763 -8180561.346 10 0 61014 58500.00000 0 -11121841.298 22393752.243 -5083316.054 10 0 61014 59400.00000 0 -11169319.793 22866891.765 -1887388.077 10 0 61014 60300.00000 0 -11008882.844 22986726.014 1345169.518 10 0 61014 61200.00000 0 -10691171.903 22727629.176 4551646.181 10 0 61014 62100.00000 0 -10271732.171 22076673.885 7669887.939 10 0 61014 63000.00000 0 -9808456.212 21034290.843 10639496.747 10 0 61014 63900.00000 0 -9358943.235 19614386.256 13402992.159 10 0 61014 64800.00000 0 -8977885.352 17843912.724 15906913.422 10 0 61014 65700.00000 0 -8714590.518 15761911.915 18102841.630 10 0 61014 66600.00000 0 -8610745.714 13418068.986 19948323.264 10 0 61014 67500.00000 0 -8698513.596 10870838.553 21407678.608 10 0 61014 68400.00000 0 -8999041.774 8185219.338 22452680.785 10 0 61014 69300.00000 0 -9521446.747 5430268.655 23063093.498 10 0 61014 70200.00000 0 -10262314.898 2676458.281 23227058.141 10 0 61014 71100.00000 0 -11205741.782 -7020.529 22941323.425 10 0 61014 72000.00000 0 -12323908.884 -2554893.065 22211313.278 10 0 61014 72900.00000 0 -13578175.026 -4908270.788 21051031.418 10 0 61014 73800.00000 0 -14920638.441 -7016853.780 19482803.617 10 0 61014 74700.00000 0 -16296106.006 -8840775.766 17536861.473 10 0 61014 75600.00000 0 -17644389.061 -10352015.854 15250774.188 10 0 61014 76500.00000 0 -18902831.271 -11535318.579 12668737.660 10 0 61014 77400.00000 0 -20008963.728 -12388583.814 9840733.031 10 0 61014 78300.00000 0 -20903176.473 -12922709.907 6821569.489 10 0 61014 79200.00000 0 -21531294.177 -13160896.155 3669828.734 10 0 61014 80100.00000 0 -21846946.897 -13137433.419 446730.916 10 0 61014 81000.00000 0 -21813634.829 -12896033.410 -2785056.126 10 0 61014 81900.00000 0 -21406398.269 -12487767.084 -5962640.921 10 0 61014 82800.00000 0 -20613020.350 -11968699.458 -9024141.089 10 0 61014 83700.00000 0 -19434709.684 -11397321.549 -11909899.707 10 0 61014 84600.00000 0 -17886232.097 -10831889.118 -14563660.291 10 0 61014 85500.00000 0 -15995484.112 -10327782.177 -16933676.145 99